Time,TemperatureF,DewpointF,PressureIn,WindDirection,WindDirectionDegrees,WindSpeedMPH,WindSpeedGustMPH,Humidity,HourlyPrecipIn,Conditions,Clouds,dailyrainin,SoftwareType,DateUTC
2013-07-03 00:00:00,77.8,71.9,30.00,North,11,0.0,0.0,82,0.00,,---,0.00,VWS V14.01,2013-07-03 05:00:00,
2013-07-03 00:05:00,77.7,71.8,30.00,NNE,12,0.0,0.0,82,0.00,,---,0.00,VWS V14.01,2013-07-03 05:05:00,
2013-07-03 00:06:00,77.8,71.9,30.00,NNE,12,0.0,0.0,82,0.00,,---,0.00,VWS V14.01,2013-07-03 05:06:00,
2013-07-03 00:08:00,77.7,71.8,30.00,NNE,12,0.0,0.0,82,0.00,,---,0.00,VWS V14.01,2013-07-03 05:08:00,
2013-07-03 00:13:00,77.7,71.8,30.00,North,11,0.0,0.0,82,0.00,,---,0.00,VWS V14.01,2013-07-03 05:13:00,
2013-07-03 00:18:00,77.7,71.8,30.00,NNE,12,0.0,0.0,82,0.00,,---,0.00,VWS V14.01,2013-07-03 05:18:00,
2013-07-03 00:23:00,77.7,71.8,30.00,NNE,12,0.0,0.0,82,0.00,,---,0.00,VWS V14.01,2013-07-03 05:23:00,
2013-07-03 00:28:00,77.7,71.8,29.99,NNE,12,0.0,0.0,82,0.00,,---,0.00,VWS V14.01,2013-07-03 05:28:00,
2013-07-03 00:35:00,77.6,71.7,29.99,NNE,12,0.0,0.0,82,0.00,,---,0.00,VWS V14.01,2013-07-03 05:35:00,
2013-07-03 00:40:00,77.7,71.8,29.99,North,11,0.0,0.0,82,0.00,,---,0.00,VWS V14.01,2013-07-03 05:40:00,
2013-07-03 00:45:00,77.6,71.7,29.98,North,11,0.0,0.0,82,0.00,,---,0.00,VWS V14.01,2013-07-03 05:45:00,
2013-07-03 00:51:00,77.6,71.7,29.99,NNE,12,0.0,0.0,82,0.00,,---,0.00,VWS V14.01,2013-07-03 05:51:00,
2013-07-03 00:57:00,77.6,71.7,29.99,North,11,0.0,0.0,82,0.00,,---,0.00,VWS V14.01,2013-07-03 05:57:00,
2013-07-03 00:58:00,77.6,71.7,29.99,NNE,12,0.0,0.0,82,0.00,,---,0.00,VWS V14.01,2013-07-03 05:58:00,
2013-07-03 01:03:00,77.5,71.6,29.98,North,11,0.0,0.0,82,0.00,,---,0.00,VWS V14.01,2013-07-03 06:03:00,
2013-07-03 01:08:00,77.5,71.6,29.98,North,11,0.0,0.0,82,0.00,,---,0.00,VWS V14.01,2013-07-03 06:08:00,
2013-07-03 01:13:00,77.5,71.9,29.98,NNE,12,0.0,0.0,83,0.00,,---,0.00,VWS V14.01,2013-07-03 06:13:00,
2013-07-03 01:18:00,77.4,71.8,29.98,NNE,12,0.0,0.0,83,0.00,,---,0.00,VWS V14.01,2013-07-03 06:18:00,
2013-07-03 01:24:00,77.3,71.7,29.98,North,11,0.0,0.0,83,0.00,,---,0.00,VWS V14.01,2013-07-03 06:24:00,
2013-07-03 01:29:00,77.3,72.1,29.98,NNE,12,0.0,0.0,84,0.00,,---,0.00,VWS V14.01,2013-07-03 06:29:00,
2013-07-03 01:34:00,77.2,72.0,29.98,North,11,0.0,0.0,84,0.00,,---,0.00,VWS V14.01,2013-07-03 06:34:00,
2013-07-03 01:35:00,77.2,72.0,29.98,NNE,12,0.0,0.0,84,0.00,,---,0.00,VWS V14.01,2013-07-03 06:35:00,
2013-07-03 01:42:00,77.0,71.8,29.98,NNE,12,0.0,0.0,84,0.00,,---,0.00,VWS V14.01,2013-07-03 06:42:00,
2013-07-03 01:43:00,77.0,71.8,29.98,North,11,0.0,0.0,84,0.00,,---,0.00,VWS V14.01,2013-07-03 06:43:00,
2013-07-03 01:50:00,76.9,72.1,29.98,NNE,12,0.0,0.0,85,0.00,,---,0.00,VWS V14.01,2013-07-03 06:50:00,
2013-07-03 01:55:00,76.8,71.9,29.98,NNE,12,0.0,0.0,85,0.00,,---,0.00,VWS V14.01,2013-07-03 06:55:00,
2013-07-03 01:58:00,76.8,71.9,29.97,North,11,0.0,0.0,85,0.00,,---,0.00,VWS V14.01,2013-07-03 06:58:00,
2013-07-03 02:03:00,76.7,71.9,29.97,North,11,0.0,0.0,85,0.00,,---,0.00,VWS V14.01,2013-07-03 07:03:00,
2013-07-03 02:08:00,76.7,71.9,29.97,NNE,12,0.0,0.0,85,0.00,,---,0.00,VWS V14.01,2013-07-03 07:08:00,
2013-07-03 02:13:00,76.7,71.9,29.96,North,8,0.0,0.0,85,0.00,,---,0.00,VWS V14.01,2013-07-03 07:13:00,
2013-07-03 02:18:00,76.6,71.8,29.97,East,79,0.0,0.0,85,0.00,,---,0.00,VWS V14.01,2013-07-03 07:18:00,
2013-07-03 02:23:00,76.6,71.8,29.97,East,79,0.0,0.0,85,0.00,,---,0.00,VWS V14.01,2013-07-03 07:23:00,
2013-07-03 02:28:00,76.5,71.7,29.96,East,79,0.0,1.0,85,0.00,,---,0.00,VWS V14.01,2013-07-03 07:28:00,
2013-07-03 02:34:00,76.5,72.0,29.96,East,79,0.0,0.0,86,0.00,,---,0.00,VWS V14.01,2013-07-03 07:34:00,
2013-07-03 02:38:00,76.4,71.9,29.96,East,79,0.0,0.0,86,0.00,,---,0.00,VWS V14.01,2013-07-03 07:38:00,
2013-07-03 02:44:00,76.3,71.8,29.96,East,79,0.0,0.0,86,0.00,,---,0.00,VWS V14.01,2013-07-03 07:44:00,
2013-07-03 02:49:00,76.2,71.7,29.97,East,79,0.0,0.0,86,0.00,,---,0.00,VWS V14.01,2013-07-03 07:49:00,
2013-07-03 02:56:00,76.1,71.6,29.97,East,79,0.0,0.0,86,0.00,,---,0.00,VWS V14.01,2013-07-03 07:56:00,
2013-07-03 02:58:00,76.1,71.6,29.97,East,79,0.0,0.0,86,0.00,,---,0.00,VWS V14.01,2013-07-03 07:58:00,
2013-07-03 03:01:00,76.0,71.9,29.97,East,79,0.0,0.0,87,0.00,,---,0.00,VWS V14.01,2013-07-03 08:01:00,
2013-07-03 03:07:00,75.9,71.8,29.96,East,79,0.0,0.0,87,0.00,,---,0.00,VWS V14.01,2013-07-03 08:07:00,
2013-07-03 03:10:00,75.8,71.7,29.96,East,79,0.0,0.0,87,0.00,,---,0.00,VWS V14.01,2013-07-03 08:10:00,
2013-07-03 03:14:00,75.7,71.6,29.96,East,79,0.0,0.0,87,0.00,,---,0.00,VWS V14.01,2013-07-03 08:14:00,
2013-07-03 03:18:00,75.7,71.6,29.97,East,79,0.0,0.0,87,0.00,,---,0.00,VWS V14.01,2013-07-03 08:18:00,
2013-07-03 03:23:00,75.5,71.7,29.96,East,79,0.0,1.0,88,0.00,,---,0.00,VWS V14.01,2013-07-03 08:23:00,
2013-07-03 03:28:00,75.4,71.6,29.96,ENE,77,0.0,0.0,88,0.00,,---,0.00,VWS V14.01,2013-07-03 08:28:00,
2013-07-03 03:33:00,75.3,71.5,29.96,ENE,77,0.0,0.0,88,0.00,,---,0.00,VWS V14.01,2013-07-03 08:33:00,
2013-07-03 03:39:00,75.2,71.4,29.96,ENE,76,0.0,0.0,88,0.00,,---,0.00,VWS V14.01,2013-07-03 08:39:00,
2013-07-03 03:44:00,75.2,71.7,29.96,ENE,77,0.0,0.0,89,0.00,,---,0.00,VWS V14.01,2013-07-03 08:44:00,
2013-07-03 03:45:00,75.1,71.6,29.96,ENE,76,0.0,0.0,89,0.00,,---,0.00,VWS V14.01,2013-07-03 08:45:00,
2013-07-03 03:46:00,75.1,71.6,29.96,ENE,77,0.0,0.0,89,0.00,,---,0.00,VWS V14.01,2013-07-03 08:46:00,
2013-07-03 03:51:00,75.1,71.6,29.96,NNW,346,0.0,0.0,89,0.00,,---,0.00,VWS V14.01,2013-07-03 08:51:00,
2013-07-03 03:56:00,75.0,71.9,29.96,North,3,0.0,0.0,90,0.00,,---,0.00,VWS V14.01,2013-07-03 08:56:00,
2013-07-03 04:01:00,74.9,71.8,29.96,North,3,0.0,0.0,90,0.00,,---,0.00,VWS V14.01,2013-07-03 09:01:00,
2013-07-03 04:05:00,74.7,71.6,29.96,North,3,0.0,0.0,90,0.00,,---,0.00,VWS V14.01,2013-07-03 09:05:00,
2013-07-03 04:10:00,74.6,71.5,29.96,NNE,25,0.0,0.0,90,0.00,,---,0.00,VWS V14.01,2013-07-03 09:10:00,
2013-07-03 04:16:00,74.5,71.7,29.96,NNE,26,0.0,0.0,91,0.00,,---,0.00,VWS V14.01,2013-07-03 09:16:00,
2013-07-03 04:22:00,74.4,71.6,29.97,NNE,26,0.0,0.0,91,0.00,,---,0.00,VWS V14.01,2013-07-03 09:22:00,
2013-07-03 04:27:00,74.5,71.7,29.97,NE,39,0.0,0.0,91,0.00,,---,0.00,VWS V14.01,2013-07-03 09:27:00,
2013-07-03 04:32:00,74.5,71.7,29.97,NE,39,0.0,0.0,91,0.00,,---,0.00,VWS V14.01,2013-07-03 09:32:00,
2013-07-03 04:37:00,74.6,71.8,29.97,NE,39,0.0,0.0,91,0.00,,---,0.00,VWS V14.01,2013-07-03 09:37:00,
2013-07-03 04:44:00,74.6,71.8,29.97,NE,39,0.0,0.0,91,0.00,,---,0.00,VWS V14.01,2013-07-03 09:44:00,
2013-07-03 04:49:00,74.6,71.8,29.97,NE,39,0.0,0.0,91,0.00,,---,0.00,VWS V14.01,2013-07-03 09:49:00,
2013-07-03 04:52:00,74.6,71.8,29.97,NE,39,0.0,0.0,91,0.00,,---,0.00,VWS V14.01,2013-07-03 09:52:00,
2013-07-03 04:54:00,74.6,71.8,29.97,NE,39,0.0,0.0,91,0.00,,---,0.00,VWS V14.01,2013-07-03 09:54:00,
2013-07-03 04:59:00,74.5,71.7,29.97,NE,39,0.0,0.0,91,0.00,,---,0.00,VWS V14.01,2013-07-03 09:59:00,
2013-07-03 05:04:00,74.4,71.6,29.97,NE,38,0.0,0.0,91,0.00,,---,0.00,VWS V14.01,2013-07-03 10:04:00,
2013-07-03 05:07:00,74.4,71.6,29.98,NE,39,0.0,0.0,91,0.00,,---,0.00,VWS V14.01,2013-07-03 10:07:00,
2013-07-03 05:09:00,74.3,71.5,29.98,NE,39,0.0,0.0,91,0.00,,---,0.00,VWS V14.01,2013-07-03 10:09:00,
2013-07-03 05:15:00,74.2,71.4,29.98,NE,39,0.0,0.0,91,0.00,,---,0.00,VWS V14.01,2013-07-03 10:15:00,
2013-07-03 05:24:00,74.1,71.6,29.98,NE,39,0.0,0.0,92,0.00,,---,0.00,VWS V14.01,2013-07-03 10:24:00,
2013-07-03 05:29:00,74.1,71.6,29.98,NE,39,0.0,0.0,92,0.00,,---,0.00,VWS V14.01,2013-07-03 10:29:00,
2013-07-03 05:33:00,74.1,71.6,29.98,NE,39,0.0,0.0,92,0.00,,---,0.00,VWS V14.01,2013-07-03 10:33:00,
2013-07-03 05:38:00,74.0,71.5,29.98,NE,39,0.0,0.0,92,0.00,,---,0.00,VWS V14.01,2013-07-03 10:38:00,
2013-07-03 05:43:00,74.0,71.5,29.98,NE,39,0.0,0.0,92,0.00,,---,0.00,VWS V14.01,2013-07-03 10:43:00,
2013-07-03 05:49:00,73.9,71.4,29.98,NE,39,0.0,0.0,92,0.00,,---,0.00,VWS V14.01,2013-07-03 10:49:00,
2013-07-03 05:51:00,73.8,71.3,29.98,NE,39,0.0,0.0,92,0.00,,---,0.00,VWS V14.01,2013-07-03 10:51:00,
2013-07-03 05:55:00,73.8,71.3,29.99,NE,39,0.0,0.0,92,0.00,,---,0.00,VWS V14.01,2013-07-03 10:55:00,
2013-07-03 06:00:00,73.7,71.2,29.99,NE,39,0.0,0.0,92,0.00,,---,0.00,VWS V14.01,2013-07-03 11:00:00,
2013-07-03 06:06:00,73.7,71.2,29.99,NE,40,0.0,0.0,92,0.00,,---,0.00,VWS V14.01,2013-07-03 11:06:00,
2013-07-03 06:14:00,73.7,71.6,29.99,NE,40,0.0,0.0,93,0.00,,---,0.00,VWS V14.01,2013-07-03 11:14:00,
2013-07-03 06:16:00,73.7,71.6,29.99,NE,39,0.0,0.0,93,0.00,,---,0.00,VWS V14.01,2013-07-03 11:16:00,
2013-07-03 06:20:00,73.7,71.2,29.99,NE,40,0.0,0.0,92,0.00,,---,0.00,VWS V14.01,2013-07-03 11:20:00,
2013-07-03 06:25:00,73.7,71.6,29.99,NE,39,0.0,0.0,93,0.00,,---,0.00,VWS V14.01,2013-07-03 11:25:00,
2013-07-03 06:27:00,73.8,71.7,29.99,NE,40,0.0,0.0,93,0.00,,---,0.00,VWS V14.01,2013-07-03 11:27:00,
2013-07-03 06:30:00,73.8,71.3,29.99,NE,40,0.0,0.0,92,0.00,,---,0.00,VWS V14.01,2013-07-03 11:30:00,
2013-07-03 06:35:00,74.0,71.5,29.99,NE,40,0.0,0.0,92,0.00,,---,0.00,VWS V14.01,2013-07-03 11:35:00,
2013-07-03 06:41:00,74.1,71.6,30.00,NE,40,0.0,0.0,92,0.00,,---,0.00,VWS V14.01,2013-07-03 11:41:00,
2013-07-03 06:45:00,74.2,71.7,30.00,NE,41,0.0,0.0,92,0.00,,---,0.00,VWS V14.01,2013-07-03 11:45:00,
2013-07-03 06:50:00,74.4,71.9,30.01,NE,41,0.0,0.0,92,0.00,,---,0.00,VWS V14.01,2013-07-03 11:50:00,
2013-07-03 06:55:00,74.6,71.8,30.01,NE,41,0.0,0.0,91,0.00,,---,0.00,VWS V14.01,2013-07-03 11:55:00,
2013-07-03 07:00:00,74.8,72.0,30.01,East,98,0.0,0.0,91,0.00,,---,0.00,VWS V14.01,2013-07-03 12:00:00,
2013-07-03 07:07:00,75.0,72.2,30.01,NW,326,1.0,1.0,91,0.00,,---,0.00,VWS V14.01,2013-07-03 12:07:00,
2013-07-03 07:11:00,75.1,72.0,30.01,ENE,61,0.0,2.0,90,0.00,,---,0.00,VWS V14.01,2013-07-03 12:11:00,
2013-07-03 07:16:00,75.1,72.0,30.02,ENE,63,0.0,0.0,90,0.00,,---,0.00,VWS V14.01,2013-07-03 12:16:00,
2013-07-03 07:21:00,75.2,72.1,30.01,North,359,0.0,0.0,90,0.00,,---,0.00,VWS V14.01,2013-07-03 12:21:00,
2013-07-03 07:22:00,75.3,72.2,30.01,North,358,0.0,0.0,90,0.00,,---,0.00,VWS V14.01,2013-07-03 12:22:00,
2013-07-03 07:27:00,75.3,72.2,30.01,North,359,0.0,0.0,90,0.00,,---,0.00,VWS V14.01,2013-07-03 12:27:00,
2013-07-03 07:32:00,75.4,72.3,30.01,NE,44,0.0,1.0,90,0.00,,---,0.00,VWS V14.01,2013-07-03 12:32:00,
2013-07-03 07:38:00,75.4,72.3,30.01,ENE,74,0.0,0.0,90,0.00,,---,0.00,VWS V14.01,2013-07-03 12:38:00,
2013-07-03 07:43:00,75.4,72.3,30.01,ENE,78,0.0,1.0,90,0.00,,---,0.00,VWS V14.01,2013-07-03 12:43:00,
2013-07-03 07:46:00,75.3,72.2,30.01,WNW,293,0.0,0.0,90,0.00,,---,0.00,VWS V14.01,2013-07-03 12:46:00,
2013-07-03 07:52:00,75.2,72.1,30.01,East,79,0.0,0.0,90,0.00,,---,0.00,VWS V14.01,2013-07-03 12:52:00,
2013-07-03 07:57:00,75.2,72.1,30.01,East,86,1.0,1.0,90,0.00,,---,0.00,VWS V14.01,2013-07-03 12:57:00,
2013-07-03 08:02:00,75.3,72.5,30.01,ENE,68,1.0,1.0,91,0.00,,---,0.00,VWS V14.01,2013-07-03 13:02:00,
2013-07-03 08:08:00,75.5,72.4,30.01,NE,50,0.0,1.0,90,0.00,,---,0.00,VWS V14.01,2013-07-03 13:08:00,
2013-07-03 08:13:00,75.6,72.5,30.01,East,79,1.0,2.0,90,0.00,,---,0.00,VWS V14.01,2013-07-03 13:13:00,
2013-07-03 08:18:00,75.9,72.8,30.01,ENE,61,1.0,1.0,90,0.00,,---,0.00,VWS V14.01,2013-07-03 13:18:00,
2013-07-03 08:25:00,76.2,72.7,30.01,ENE,70,0.0,1.0,89,0.00,,---,0.00,VWS V14.01,2013-07-03 13:25:00,
2013-07-03 08:26:00,76.3,72.8,30.01,ENE,71,1.0,1.0,89,0.00,,---,0.00,VWS V14.01,2013-07-03 13:26:00,
2013-07-03 08:31:00,76.8,73.3,30.01,NNE,15,0.0,0.0,89,0.00,,---,0.00,VWS V14.01,2013-07-03 13:31:00,
2013-07-03 08:36:00,77.5,73.7,30.01,ENE,63,0.0,1.0,88,0.00,,---,0.00,VWS V14.01,2013-07-03 13:36:00,
2013-07-03 08:39:00,77.9,73.7,30.01,ENE,66,0.0,1.0,87,0.00,,---,0.00,VWS V14.01,2013-07-03 13:39:00,
2013-07-03 08:45:00,78.8,73.9,30.01,NW,319,2.0,3.0,85,0.00,,---,0.00,VWS V14.01,2013-07-03 13:45:00,
2013-07-03 08:51:00,79.1,74.2,30.01,WNW,302,0.0,2.0,85,0.00,,---,0.00,VWS V14.01,2013-07-03 13:51:00,
2013-07-03 08:56:00,79.5,74.2,30.01,NW,314,1.0,1.0,84,0.00,,---,0.00,VWS V14.01,2013-07-03 13:56:00,
2013-07-03 09:05:00,80.5,74.9,30.01,NNE,12,1.0,2.0,83,0.00,,---,0.00,VWS V14.01,2013-07-03 14:05:00,
2013-07-03 09:06:00,80.7,75.1,30.01,NNW,339,1.0,2.0,83,0.00,,---,0.00,VWS V14.01,2013-07-03 14:06:00,
2013-07-03 09:12:00,81.4,75.4,30.02,NNW,335,2.0,2.0,82,0.00,,---,0.00,VWS V14.01,2013-07-03 14:12:00,
2013-07-03 09:16:00,82.0,75.6,30.01,SW,218,1.0,1.0,81,0.00,,---,0.00,VWS V14.01,2013-07-03 14:16:00,
2013-07-03 09:19:00,82.4,75.6,30.01,North,360,1.0,2.0,80,0.00,,---,0.00,VWS V14.01,2013-07-03 14:19:00,
2013-07-03 09:24:00,82.9,75.3,30.00,ENE,74,1.0,2.0,78,0.00,,---,0.00,VWS V14.01,2013-07-03 14:24:00,
2013-07-03 09:29:00,82.3,75.1,30.01,NNE,32,2.0,2.0,79,0.00,,---,0.00,VWS V14.01,2013-07-03 14:29:00,
2013-07-03 09:34:00,81.9,75.1,30.01,East,98,1.0,1.0,80,0.00,,---,0.00,VWS V14.01,2013-07-03 14:34:00,
2013-07-03 09:35:00,81.8,75.0,30.01,East,99,0.0,1.0,80,0.00,,---,0.00,VWS V14.01,2013-07-03 14:35:00,
2013-07-03 09:41:00,81.7,75.3,30.02,NNE,20,0.0,1.0,81,0.00,,---,0.00,VWS V14.01,2013-07-03 14:41:00,
2013-07-03 09:46:00,81.7,75.3,30.02,East,79,0.0,1.0,81,0.00,,---,0.00,VWS V14.01,2013-07-03 14:46:00,
2013-07-03 09:52:00,81.4,75.0,30.02,NE,36,1.0,2.0,81,0.00,,---,0.00,VWS V14.01,2013-07-03 14:52:00,
2013-07-03 09:58:00,80.7,74.7,30.03,NNW,343,0.0,1.0,82,0.00,,---,0.00,VWS V14.01,2013-07-03 14:58:00,
2013-07-03 09:59:00,80.7,74.7,30.03,NNW,343,0.0,0.0,82,0.00,,---,0.00,VWS V14.01,2013-07-03 14:59:00,
2013-07-03 10:02:00,80.5,74.9,30.02,NNW,342,0.0,0.0,83,0.00,,---,0.00,VWS V14.01,2013-07-03 15:02:00,
2013-07-03 10:04:00,80.5,74.9,30.02,NNW,343,0.0,0.0,83,0.00,,---,0.00,VWS V14.01,2013-07-03 15:04:00,
2013-07-03 10:07:00,80.4,74.8,30.02,NNE,27,0.0,2.0,83,0.00,,---,0.00,VWS V14.01,2013-07-03 15:07:00,
2013-07-03 10:12:00,80.2,74.9,30.02,NNE,15,0.0,1.0,84,0.00,,---,0.00,VWS V14.01,2013-07-03 15:12:00,
2013-07-03 10:17:00,80.2,74.9,30.01,NNE,15,0.0,1.0,84,0.00,,---,0.00,VWS V14.01,2013-07-03 15:17:00,
2013-07-03 10:22:00,80.4,75.1,30.02,ENE,65,1.0,2.0,84,0.00,,---,0.00,VWS V14.01,2013-07-03 15:22:00,
2013-07-03 10:27:00,80.8,75.2,30.02,NW,319,0.0,1.0,83,0.00,,---,0.00,VWS V14.01,2013-07-03 15:27:00,
2013-07-03 10:29:00,80.9,75.3,30.01,NW,321,0.0,1.0,83,0.00,,---,0.00,VWS V14.01,2013-07-03 15:29:00,
2013-07-03 10:30:00,81.0,75.3,30.01,NW,321,0.0,1.0,83,0.00,,---,0.00,VWS V14.01,2013-07-03 15:30:00,
2013-07-03 10:37:00,81.7,75.7,30.01,ENE,70,0.0,1.0,82,0.00,,---,0.00,VWS V14.01,2013-07-03 15:37:00,
2013-07-03 10:44:00,82.2,75.4,30.01,East,89,1.0,4.0,80,0.00,,---,0.00,VWS V14.01,2013-07-03 15:44:00,
2013-07-03 10:49:00,82.3,75.5,30.01,East,82,1.0,4.0,80,0.00,,---,0.00,VWS V14.01,2013-07-03 15:49:00,
2013-07-03 10:50:00,82.3,75.5,30.01,East,86,1.0,1.0,80,0.00,,---,0.00,VWS V14.01,2013-07-03 15:50:00,
2013-07-03 10:53:00,82.5,76.1,30.02,ENE,61,1.0,4.0,81,0.00,,---,0.00,VWS V14.01,2013-07-03 15:53:00,
2013-07-03 10:54:00,82.5,75.7,30.02,East,82,2.0,3.0,80,0.00,,---,0.00,VWS V14.01,2013-07-03 15:54:00,
2013-07-03 10:58:00,82.7,75.9,30.01,NE,39,2.0,5.0,80,0.00,,---,0.00,VWS V14.01,2013-07-03 15:58:00,
2013-07-03 11:03:00,82.4,75.6,30.01,ENE,66,1.0,3.0,80,0.00,,---,0.00,VWS V14.01,2013-07-03 16:03:00,
2013-07-03 11:08:00,82.6,75.4,30.01,East,79,2.0,3.0,79,0.00,,---,0.00,VWS V14.01,2013-07-03 16:08:00,
2013-07-03 11:14:00,82.9,75.3,30.02,NE,53,2.0,4.0,78,0.00,,---,0.00,VWS V14.01,2013-07-03 16:14:00,
2013-07-03 11:20:00,83.0,74.7,30.01,East,101,2.0,3.0,76,0.00,,---,0.00,VWS V14.01,2013-07-03 16:20:00,
2013-07-03 11:25:00,83.4,75.1,30.01,NNE,17,1.0,3.0,76,0.00,,---,0.00,VWS V14.01,2013-07-03 16:25:00,
2013-07-03 11:31:00,84.0,74.8,30.01,NE,51,2.0,3.0,74,0.00,,---,0.00,VWS V14.01,2013-07-03 16:31:00,
2013-07-03 11:36:00,84.5,75.3,30.00,ENE,65,1.0,2.0,74,0.00,,---,0.00,VWS V14.01,2013-07-03 16:36:00,
2013-07-03 11:41:00,84.7,75.1,30.00,SE,135,0.0,5.0,73,0.00,,---,0.00,VWS V14.01,2013-07-03 16:41:00,
2013-07-03 11:46:00,84.9,75.3,30.00,North,356,2.0,4.0,73,0.00,,---,0.00,VWS V14.01,2013-07-03 16:46:00,
2013-07-03 11:52:00,85.6,76.0,30.00,NE,46,1.0,2.0,73,0.00,,---,0.00,VWS V14.01,2013-07-03 16:52:00,
2013-07-03 11:57:00,86.2,75.3,30.00,NNE,19,1.0,2.0,70,0.00,,---,0.00,VWS V14.01,2013-07-03 16:57:00,
2013-07-03 12:02:00,86.4,75.0,29.99,East,79,0.0,2.0,69,0.00,,---,0.00,VWS V14.01,2013-07-03 17:02:00,
2013-07-03 12:07:00,86.7,75.3,30.00,ENE,69,1.0,2.0,69,0.00,,---,0.00,VWS V14.01,2013-07-03 17:07:00,
2013-07-03 12:12:00,87.4,73.7,29.99,East,98,3.0,3.0,64,0.00,,---,0.00,VWS V14.01,2013-07-03 17:12:00,
2013-07-03 12:17:00,88.1,75.3,29.99,ENE,68,3.0,3.0,66,0.00,,---,0.00,VWS V14.01,2013-07-03 17:17:00,
2013-07-03 12:23:00,87.6,73.0,29.99,ENE,68,3.0,4.0,62,0.00,,---,0.00,VWS V14.01,2013-07-03 17:23:00,
2013-07-03 12:28:00,87.5,73.8,29.99,NE,37,2.0,4.0,64,0.00,,---,0.00,VWS V14.01,2013-07-03 17:28:00,
2013-07-03 12:33:00,88.0,74.3,29.99,East,101,5.0,5.0,64,0.00,,---,0.00,VWS V14.01,2013-07-03 17:33:00,
2013-07-03 12:39:00,87.9,73.7,29.99,East,90,2.0,4.0,63,0.00,,---,0.00,VWS V14.01,2013-07-03 17:39:00,
2013-07-03 12:46:00,87.9,74.2,29.99,ENE,61,3.0,5.0,64,0.00,,---,0.00,VWS V14.01,2013-07-03 17:46:00,
2013-07-03 12:52:00,88.4,74.7,29.99,ENE,75,3.0,3.0,64,0.00,,---,0.00,VWS V14.01,2013-07-03 17:52:00,
2013-07-03 12:57:00,88.3,75.1,29.99,ESE,122,2.0,2.0,65,0.00,,---,0.00,VWS V14.01,2013-07-03 17:57:00,
2013-07-03 13:02:00,88.7,75.9,29.98,ENE,77,1.0,1.0,66,0.00,,---,0.00,VWS V14.01,2013-07-03 18:02:00,
2013-07-03 13:07:00,88.8,76.0,29.98,SE,128,0.0,1.0,66,0.00,,---,0.00,VWS V14.01,2013-07-03 18:07:00,
2013-07-03 13:13:00,88.2,75.4,29.98,ENE,76,2.0,3.0,66,0.00,,---,0.00,VWS V14.01,2013-07-03 18:13:00,
2013-07-03 13:18:00,87.6,75.3,29.98,East,84,1.0,2.0,67,0.00,,---,0.00,VWS V14.01,2013-07-03 18:18:00,
2013-07-03 13:23:00,87.2,74.9,29.98,ENE,65,1.0,2.0,67,0.00,,---,0.00,VWS V14.01,2013-07-03 18:23:00,
2013-07-03 13:29:00,87.2,75.4,29.97,ESE,120,1.0,1.0,68,0.00,,---,0.00,VWS V14.01,2013-07-03 18:29:00,
2013-07-03 13:35:00,87.4,75.1,29.98,NNE,23,1.0,3.0,67,0.00,,---,0.00,VWS V14.01,2013-07-03 18:35:00,
2013-07-03 13:40:00,87.1,74.8,29.98,ESE,108,4.0,4.0,67,0.00,,---,0.00,VWS V14.01,2013-07-03 18:40:00,
2013-07-03 13:46:00,86.8,75.0,29.98,ENE,75,2.0,2.0,68,0.00,,---,0.00,VWS V14.01,2013-07-03 18:46:00,
2013-07-03 13:52:00,86.9,74.6,29.98,SE,126,2.0,4.0,67,0.00,,---,0.00,VWS V14.01,2013-07-03 18:52:00,
2013-07-03 13:58:00,86.4,74.2,29.98,ENE,73,1.0,2.0,67,0.00,,---,0.00,VWS V14.01,2013-07-03 18:58:00,
2013-07-03 14:03:00,86.1,74.8,29.98,NE,49,2.0,2.0,69,0.00,,---,0.00,VWS V14.01,2013-07-03 19:03:00,
2013-07-03 14:09:00,85.9,74.6,29.98,ENE,70,1.0,1.0,69,0.00,,---,0.00,VWS V14.01,2013-07-03 19:09:00,
2013-07-03 14:14:00,86.0,74.7,29.97,ENE,69,1.0,2.0,69,0.00,,---,0.00,VWS V14.01,2013-07-03 19:14:00,
2013-07-03 14:19:00,86.1,74.3,29.97,SE,129,2.0,2.0,68,0.00,,---,0.00,VWS V14.01,2013-07-03 19:19:00,
2013-07-03 14:25:00,86.6,74.8,29.97,NE,38,1.0,2.0,68,0.00,,---,0.00,VWS V14.01,2013-07-03 19:25:00,
2013-07-03 14:32:00,86.5,74.7,29.97,SE,138,0.0,3.0,68,0.00,,---,0.00,VWS V14.01,2013-07-03 19:32:00,
2013-07-03 14:38:00,86.3,74.9,29.96,SW,227,1.0,1.0,69,0.00,,---,0.00,VWS V14.01,2013-07-03 19:38:00,
2013-07-03 14:43:00,86.4,75.0,29.96,East,84,3.0,3.0,69,0.00,,---,0.00,VWS V14.01,2013-07-03 19:43:00,
2013-07-03 14:48:00,86.4,75.0,29.96,ENE,68,3.0,3.0,69,0.00,,---,0.00,VWS V14.01,2013-07-03 19:48:00,
2013-07-03 14:54:00,86.2,74.4,29.96,NE,52,1.0,5.0,68,0.00,,---,0.00,VWS V14.01,2013-07-03 19:54:00,
2013-07-03 14:59:00,86.0,75.1,29.96,SSW,212,1.0,2.0,70,0.00,,---,0.00,VWS V14.01,2013-07-03 19:59:00,
2013-07-03 15:06:00,84.9,74.9,29.96,ENE,58,1.0,5.0,72,0.00,,---,0.00,VWS V14.01,2013-07-03 20:06:00,
2013-07-03 15:11:00,83.9,75.1,29.95,NE,39,1.0,3.0,75,0.00,,---,0.00,VWS V14.01,2013-07-03 20:11:00,
2013-07-03 15:16:00,83.9,75.9,29.95,SE,132,1.0,3.0,77,0.00,,---,0.00,VWS V14.01,2013-07-03 20:16:00,
2013-07-03 15:21:00,84.1,75.7,29.95,SSW,197,0.0,5.0,76,0.00,,---,0.00,VWS V14.01,2013-07-03 20:21:00,
2013-07-03 15:28:00,83.9,75.5,29.94,East,82,1.0,2.0,76,0.00,,---,0.00,VWS V14.01,2013-07-03 20:28:00,
2013-07-03 15:33:00,83.8,75.4,29.94,ESE,104,3.0,3.0,76,0.00,,---,0.00,VWS V14.01,2013-07-03 20:33:00,
2013-07-03 15:38:00,83.9,75.9,29.94,SSE,151,1.0,1.0,77,0.00,,---,0.00,VWS V14.01,2013-07-03 20:38:00,
2013-07-03 15:43:00,84.1,75.7,29.93,ENE,77,2.0,3.0,76,0.00,,---,0.00,VWS V14.01,2013-07-03 20:43:00,
2013-07-03 15:48:00,84.1,75.7,29.93,East,94,1.0,1.0,76,0.00,,---,0.00,VWS V14.01,2013-07-03 20:48:00,
2013-07-03 15:54:00,84.5,75.7,29.94,SSE,151,0.0,3.0,75,0.00,,---,0.00,VWS V14.01,2013-07-03 20:54:00,
2013-07-03 15:59:00,84.6,75.4,29.94,SW,226,3.0,3.0,74,0.00,,---,0.00,VWS V14.01,2013-07-03 20:59:00,
2013-07-03 16:04:00,84.3,75.5,29.94,East,82,1.0,4.0,75,0.00,,---,0.00,VWS V14.01,2013-07-03 21:04:00,
2013-07-03 16:09:00,84.3,75.1,29.93,ENE,58,2.0,2.0,74,0.00,,---,0.00,VWS V14.01,2013-07-03 21:09:00,
2013-07-03 16:15:00,84.2,75.0,29.93,ESE,120,1.0,1.0,74,0.00,,---,0.00,VWS V14.01,2013-07-03 21:15:00,
2013-07-03 16:21:00,84.4,75.2,29.94,ENE,65,2.0,3.0,74,0.00,,---,0.00,VWS V14.01,2013-07-03 21:21:00,
2013-07-03 16:27:00,84.3,74.7,29.94,NNW,335,2.0,2.0,73,0.00,,---,0.00,VWS V14.01,2013-07-03 21:27:00,
2013-07-03 16:32:00,84.2,74.6,29.93,SSE,160,1.0,4.0,73,0.00,,---,0.00,VWS V14.01,2013-07-03 21:32:00,
2013-07-03 16:37:00,84.2,75.4,29.94,ESE,111,2.0,3.0,75,0.00,,---,0.00,VWS V14.01,2013-07-03 21:37:00,
2013-07-03 16:42:00,84.2,75.0,29.94,ENE,63,1.0,3.0,74,0.00,,---,0.00,VWS V14.01,2013-07-03 21:42:00,
2013-07-03 16:47:00,84.2,75.4,29.94,East,91,2.0,3.0,75,0.00,,---,0.00,VWS V14.01,2013-07-03 21:47:00,
2013-07-03 16:52:00,84.0,74.8,29.93,East,96,1.0,2.0,74,0.00,,---,0.00,VWS V14.01,2013-07-03 21:52:00,
2013-07-03 16:57:00,84.0,75.2,29.94,ESE,108,0.0,1.0,75,0.00,,---,0.00,VWS V14.01,2013-07-03 21:57:00,
2013-07-03 17:02:00,84.0,75.2,29.94,ESE,110,1.0,3.0,75,0.00,,---,0.00,VWS V14.01,2013-07-03 22:02:00,
2013-07-03 17:08:00,83.9,75.5,29.94,ESE,108,1.0,4.0,76,0.00,,---,0.00,VWS V14.01,2013-07-03 22:08:00,
2013-07-03 17:14:00,83.6,75.2,29.94,East,101,1.0,3.0,76,0.00,,---,0.00,VWS V14.01,2013-07-03 22:14:00,
2013-07-03 17:19:00,83.4,74.7,29.95,NE,39,1.0,2.0,75,0.00,,---,0.00,VWS V14.01,2013-07-03 22:19:00,
2013-07-03 17:25:00,83.3,74.9,29.95,ESE,116,0.0,2.0,76,0.00,,---,0.00,VWS V14.01,2013-07-03 22:25:00,
2013-07-03 17:30:00,83.3,75.3,29.95,ENE,72,1.0,3.0,77,0.00,,---,0.00,VWS V14.01,2013-07-03 22:30:00,
2013-07-03 17:35:00,83.4,75.4,29.95,NE,55,1.0,1.0,77,0.00,,---,0.00,VWS V14.01,2013-07-03 22:35:00,
2013-07-03 17:40:00,83.4,75.4,29.95,ESE,108,0.0,1.0,77,0.00,,---,0.00,VWS V14.01,2013-07-03 22:40:00,
2013-07-03 17:45:00,83.7,75.3,29.95,ENE,74,2.0,3.0,76,0.00,,---,0.00,VWS V14.01,2013-07-03 22:45:00,
2013-07-03 17:50:00,83.6,75.2,29.95,East,80,3.0,4.0,76,0.00,,---,0.00,VWS V14.01,2013-07-03 22:50:00,
2013-07-03 17:55:00,83.4,75.1,29.95,SE,131,1.0,2.0,76,0.00,,---,0.00,VWS V14.01,2013-07-03 22:55:00,
2013-07-03 18:00:00,83.2,74.8,29.95,SW,235,1.0,2.0,76,0.00,,---,0.00,VWS V14.01,2013-07-03 23:00:00,
2013-07-03 18:05:00,83.2,75.2,29.95,ENE,73,2.0,4.0,77,0.00,,---,0.00,VWS V14.01,2013-07-03 23:05:00,
2013-07-03 18:10:00,83.3,75.3,29.94,NE,35,1.0,2.0,77,0.00,,---,0.00,VWS V14.01,2013-07-03 23:10:00,
2013-07-03 18:15:00,83.4,75.4,29.95,ESE,120,1.0,2.0,77,0.00,,---,0.00,VWS V14.01,2013-07-03 23:15:00,
2013-07-03 18:20:00,83.3,75.3,29.95,WNW,294,2.0,3.0,77,0.00,,---,0.00,VWS V14.01,2013-07-03 23:20:00,
2013-07-03 18:25:00,82.9,76.1,29.95,North,8,1.0,3.0,80,0.00,,---,0.00,VWS V14.01,2013-07-03 23:25:00,
2013-07-03 18:30:00,81.7,75.7,29.96,East,82,0.0,0.0,82,0.00,,---,0.00,VWS V14.01,2013-07-03 23:30:00,
2013-07-03 18:35:00,80.8,75.2,29.96,East,82,1.0,1.0,83,0.00,,---,0.00,VWS V14.01,2013-07-03 23:35:00,
2013-07-03 18:40:00,79.9,74.6,29.96,NE,39,1.0,1.0,84,0.00,,---,0.00,VWS V14.01,2013-07-03 23:40:00,
2013-07-03 18:45:00,79.3,74.4,29.95,West,278,1.0,1.0,85,0.00,,---,0.00,VWS V14.01,2013-07-03 23:45:00,
2013-07-03 18:50:00,78.8,74.3,29.95,NNE,15,1.0,2.0,86,0.00,,---,0.00,VWS V14.01,2013-07-03 23:50:00,
2013-07-03 18:56:00,78.6,74.4,29.95,ENE,77,1.0,1.0,87,0.00,,---,0.00,VWS V14.01,2013-07-03 23:56:00,
2013-07-03 19:02:00,78.3,74.5,29.96,SW,235,1.0,2.0,88,0.00,,---,0.00,VWS V14.01,2013-07-04 00:02:00,
2013-07-03 19:08:00,77.7,74.2,29.96,WSW,238,0.0,0.0,89,0.03,,---,0.03,VWS V14.01,2013-07-04 00:08:00,
2013-07-03 19:15:00,77.3,74.8,29.96,WSW,238,1.0,1.0,92,0.05,,---,0.05,VWS V14.01,2013-07-04 00:15:00,
2013-07-03 19:20:00,76.9,74.4,29.96,WSW,238,0.0,0.0,92,0.05,,---,0.05,VWS V14.01,2013-07-04 00:20:00,
2013-07-03 19:25:00,76.3,74.1,29.96,NE,51,1.0,1.0,93,0.16,,---,0.16,VWS V14.01,2013-07-04 00:25:00,
2013-07-03 19:31:00,75.9,74.1,29.96,NE,49,0.0,1.0,94,0.28,,---,0.28,VWS V14.01,2013-07-04 00:31:00,
2013-07-03 19:36:00,75.5,74.0,29.96,SE,128,1.0,1.0,95,0.34,,---,0.34,VWS V14.01,2013-07-04 00:36:00,
2013-07-03 19:42:00,75.2,73.7,29.97,North,8,0.0,1.0,95,0.37,,---,0.37,VWS V14.01,2013-07-04 00:42:00,
2013-07-03 19:47:00,75.1,73.9,29.97,NE,44,0.0,0.0,96,0.38,,---,0.38,VWS V14.01,2013-07-04 00:47:00,
2013-07-03 19:53:00,74.9,73.7,29.97,ENE,77,1.0,1.0,96,0.38,,---,0.38,VWS V14.01,2013-07-04 00:53:00,
2013-07-03 19:58:00,74.8,73.6,29.97,East,81,0.0,2.0,96,0.38,,---,0.38,VWS V14.01,2013-07-04 00:58:00,
2013-07-03 20:03:00,74.8,73.9,29.97,North,352,1.0,1.0,97,0.38,,---,0.38,VWS V14.01,2013-07-04 01:03:00,
2013-07-03 20:09:00,74.6,73.7,29.97,East,94,0.0,1.0,97,0.35,,---,0.38,VWS V14.01,2013-07-04 01:09:00,
2013-07-03 20:14:00,74.5,73.6,29.97,NNE,22,0.0,1.0,97,0.34,,---,0.38,VWS V14.01,2013-07-04 01:14:00,
2013-07-03 20:19:00,74.4,73.5,29.97,East,82,0.0,1.0,97,0.33,,---,0.38,VWS V14.01,2013-07-04 01:19:00,
2013-07-03 20:24:00,74.2,73.3,29.97,East,83,0.0,1.0,97,0.29,,---,0.38,VWS V14.01,2013-07-04 01:24:00,
2013-07-03 20:29:00,74.2,73.3,29.97,East,87,0.0,1.0,97,0.14,,---,0.38,VWS V14.01,2013-07-04 01:29:00,
2013-07-03 20:35:00,74.2,73.3,29.97,East,87,0.0,0.0,97,0.09,,---,0.38,VWS V14.01,2013-07-04 01:35:00,
2013-07-03 20:41:00,74.3,73.4,29.97,East,87,0.0,0.0,97,0.01,,---,0.38,VWS V14.01,2013-07-04 01:41:00,
2013-07-03 20:47:00,74.2,73.3,29.97,East,87,0.0,0.0,97,0.00,,---,0.38,VWS V14.01,2013-07-04 01:47:00,
2013-07-03 20:53:00,74.1,73.2,29.97,East,87,0.0,0.0,97,0.00,,---,0.38,VWS V14.01,2013-07-04 01:53:00,
2013-07-03 20:58:00,74.0,73.1,29.97,NNE,25,0.0,0.0,97,0.00,,---,0.38,VWS V14.01,2013-07-04 01:58:00,
2013-07-03 21:04:00,73.8,72.9,29.97,NNE,25,0.0,0.0,97,0.00,,---,0.38,VWS V14.01,2013-07-04 02:04:00,
2013-07-03 21:09:00,73.7,73.1,29.97,East,97,0.0,0.0,98,0.00,,---,0.38,VWS V14.01,2013-07-04 02:09:00,
2013-07-03 21:16:00,73.6,73.0,29.97,East,97,0.0,0.0,98,0.00,,---,0.38,VWS V14.01,2013-07-04 02:16:00,
2013-07-03 21:21:00,73.6,73.0,29.97,East,97,0.0,1.0,98,0.00,,---,0.38,VWS V14.01,2013-07-04 02:21:00,
2013-07-03 21:26:00,73.5,72.9,29.97,East,97,0.0,1.0,98,0.00,,---,0.38,VWS V14.01,2013-07-04 02:26:00,
2013-07-03 21:31:00,73.4,72.8,29.98,East,97,0.0,0.0,98,0.00,,---,0.38,VWS V14.01,2013-07-04 02:31:00,
2013-07-03 21:36:00,73.4,72.8,29.98,East,98,0.0,0.0,98,0.00,,---,0.38,VWS V14.01,2013-07-04 02:36:00,
2013-07-03 21:41:00,73.4,72.8,29.99,East,97,0.0,0.0,98,0.00,,---,0.38,VWS V14.01,2013-07-04 02:41:00,
2013-07-03 21:47:00,73.3,72.7,29.99,NNW,339,0.0,0.0,98,0.00,,---,0.38,VWS V14.01,2013-07-04 02:47:00,
2013-07-03 21:52:00,73.3,72.7,29.99,NNW,335,0.0,1.0,98,0.00,,---,0.38,VWS V14.01,2013-07-04 02:52:00,
2013-07-03 21:58:00,73.3,72.7,29.99,East,93,0.0,1.0,98,0.00,,---,0.38,VWS V14.01,2013-07-04 02:58:00,
2013-07-03 22:03:00,73.3,72.7,29.99,East,94,0.0,0.0,98,0.00,,---,0.38,VWS V14.01,2013-07-04 03:03:00,
2013-07-03 22:08:00,73.4,72.8,29.99,East,94,0.0,0.0,98,0.00,,---,0.38,VWS V14.01,2013-07-04 03:08:00,
2013-07-03 22:13:00,73.4,72.8,29.99,East,95,0.0,0.0,98,0.00,,---,0.38,VWS V14.01,2013-07-04 03:13:00,
2013-07-03 22:18:00,73.3,72.7,29.99,East,93,0.0,0.0,98,0.00,,---,0.38,VWS V14.01,2013-07-04 03:18:00,
2013-07-03 22:24:00,73.3,72.7,29.99,East,94,0.0,0.0,98,0.00,,---,0.38,VWS V14.01,2013-07-04 03:24:00,
2013-07-03 22:29:00,73.4,72.8,29.99,East,93,0.0,0.0,98,0.00,,---,0.38,VWS V14.01,2013-07-04 03:29:00,
2013-07-03 22:34:00,73.4,72.8,29.99,East,93,0.0,0.0,98,0.00,,---,0.38,VWS V14.01,2013-07-04 03:34:00,
2013-07-03 22:40:00,73.5,72.9,29.99,ENE,71,0.0,0.0,98,0.00,,---,0.38,VWS V14.01,2013-07-04 03:40:00,
2013-07-03 22:45:00,73.4,72.8,29.99,East,85,1.0,2.0,98,0.00,,---,0.38,VWS V14.01,2013-07-04 03:45:00,
2013-07-03 22:50:00,73.5,72.9,29.99,NNE,33,1.0,3.0,98,0.00,,---,0.38,VWS V14.01,2013-07-04 03:50:00,
2013-07-03 22:58:00,73.5,72.9,29.99,NNE,32,0.0,0.0,98,0.00,,---,0.38,VWS V14.01,2013-07-04 03:58:00,
2013-07-03 23:01:00,73.6,73.0,29.99,NE,44,0.0,1.0,98,0.00,,---,0.38,VWS V14.01,2013-07-04 04:01:00,
2013-07-03 23:02:00,73.6,73.0,29.99,NE,44,0.0,0.0,98,0.00,,---,0.38,VWS V14.01,2013-07-04 04:02:00,
2013-07-03 23:04:00,73.6,73.0,29.99,West,267,0.0,0.0,98,0.00,,---,0.38,VWS V14.01,2013-07-04 04:04:00,
2013-07-03 23:07:00,73.6,73.0,29.99,East,80,0.0,0.0,98,0.00,,---,0.38,VWS V14.01,2013-07-04 04:07:00,
2013-07-03 23:08:00,73.6,73.0,29.99,East,86,0.0,0.0,98,0.00,,---,0.38,VWS V14.01,2013-07-04 04:08:00,
2013-07-03 23:13:00,73.6,73.0,29.99,ENE,77,0.0,2.0,98,0.00,,---,0.38,VWS V14.01,2013-07-04 04:13:00,
2013-07-03 23:18:00,73.6,73.0,29.99,ENE,71,0.0,1.0,98,0.00,,---,0.38,VWS V14.01,2013-07-04 04:18:00,
2013-07-03 23:23:00,73.7,73.1,29.99,ENE,71,0.0,1.0,98,0.00,,---,0.38,VWS V14.01,2013-07-04 04:23:00,
2013-07-03 23:28:00,73.7,73.4,29.99,ENE,73,0.0,1.0,99,0.00,,---,0.38,VWS V14.01,2013-07-04 04:28:00,
2013-07-03 23:33:00,73.7,73.4,29.99,East,99,1.0,2.0,99,0.00,,---,0.38,VWS V14.01,2013-07-04 04:33:00,
2013-07-03 23:38:00,73.7,73.1,29.99,ESE,104,0.0,3.0,98,0.00,,---,0.38,VWS V14.01,2013-07-04 04:38:00,
2013-07-03 23:43:00,73.5,72.9,29.99,SE,131,0.0,2.0,98,0.00,,---,0.38,VWS V14.01,2013-07-04 04:43:00,
2013-07-03 23:48:00,73.4,72.8,29.99,ENE,73,1.0,3.0,98,0.00,,---,0.38,VWS V14.01,2013-07-04 04:48:00,
2013-07-03 23:53:00,73.4,72.8,29.99,ENE,61,1.0,3.0,98,0.00,,---,0.38,VWS V14.01,2013-07-04 04:53:00,
2013-07-03 23:58:00,73.4,72.8,29.98,ENE,68,1.0,2.0,98,0.00,,---,0.38,VWS V14.01,2013-07-04 04:58:00,